Location: Zagreb
(45.8000°N, 16.0000°E)
Time: 21:49:29
(UTC+01:00)

Tiros 1 despin weight - Pass Details

Date: 03 February 2020
Orbit: 594 x 642 km, 48.2° (Epoch: 24 February)

Event Time Altitude Azimuth Distance (km) Brightness Sun altitude
Rises 11:26:34 0° 283° (WNW) 2,859 ? 26.8°
Reaches altitude 10° 11:28:52 10° 286° (WNW) 1,962 ? 26.9°
Maximum altitude 11:33:22 72° 11° (N) 649 ? 27.0°
Drops below altitude 10° 11:37:56 10° 96° (E) 1,990 ? 27.2°
Sets 11:40:16 0° 99° (E) 2,903 ? 27.2°
